EW1145 Weather Reports


Display with metric or nautical units.
time (UTC)temp
F
wind
direction
speed
MPH
gust
MPH
rain 1hr
in
rain 24hr
in
rain mn
in
humidity
%
barometer
mb
20260903123045 54 209 0.0 3.0 0.07 0.34 0.08 95 1008.6
20260903121547 54 232 0.0 4.0 0.06 0.32 0.06 95 1008.7
20260903120042 55 204 0.0 2.0 0.04 0.30 0.04 94 1008.6
20260903114541 55 204 0.0 0.0 0.02 0.28 0.02 93 1008.6
20260903113042 55 198 0.0 3.0 0.01 0.27 0.01 93 1008.7
20260903111539 55 193 0.0 3.0 0.00 0.26 0.00 92 1008.6
20260903110108 55 193 0.0 1.0 0.00 0.26 0.00 92 1008.5
20260903104538 55 177 0.0 4.0 0.00 0.26 0.00 92 1008.6
20260903103038 55 198 0.0 4.0 0.00 0.26 0.00 92 1008.6
20260903101536 55 215 0.0 6.0 0.00 0.26 0.00 92 1008.6
20260903100037 55 252 0.0 4.0 0.00 0.26 0.00 92 1008.5
20260903094549 55 190 0.0 1.0 0.00 0.26 0.00 92 1008.5
20260903093037 55 190 0.0 3.0 0.00 0.26 0.00 92 1008.5
20260903091534 55 188 0.0 2.0 0.00 0.26 0.00 92 1008.7
20260903090034 55 188 0.0 3.0 0.00 0.26 0.00 93 1008.6
20260903084533 55 188 0.0 2.0 0.00 0.26 0.00 94 1008.7
20260903083031 55 188 0.0 3.0 0.00 0.26 0.00 94 1008.8
20260903081540 55 188 0.0 3.0 0.00 0.26 0.00 94 1008.8
20260903080030 55 188 0.0 2.0 0.00 0.26 0.00 94 1008.8
20260903074529 56 187 0.0 1.0 0.00 0.26 0.00 93 1008.9
20260903073027 56 136 0.0 1.0 0.00 0.26 0.00 93 1009.0
20260903071527 56 198 0.0 2.0 0.00 0.26 0.00 93 1008.9
20260903070034 56 198 0.0 0.0 0.00 0.26 0.26 93 1008.8
20260903064524 55 198 0.0 0.0 0.00 0.26 0.26 93 1008.8
20260903063024 55 198 0.0 0.0 0.00 0.26 0.26 93 1008.8
20260903061530 55 198 0.0 0.0 0.00 0.26 0.26 93 1008.7
20260903060023 55 198 0.0 1.0 0.00 0.26 0.26 92 1008.9
20260903054540 55 198 0.0 0.0 0.00 0.26 0.26 92 1009.0
20260903053030 54 198 0.0 0.0 0.00 0.26 0.26 93 1008.9
20260903051522 54 198 0.0 0.0 0.00 0.26 0.26 93 1008.9
20260903050022 54 198 0.0 0.0 0.00 0.26 0.26 93 1008.7
20260903044524 54 198 0.0 0.0 0.00 0.26 0.26 93 1008.6
20260903043024 53 198 0.0 0.0 0.00 0.26 0.26 93 1008.4
20260903041521 53 198 0.0 0.0 0.00 0.26 0.26 92 1008.4
20260903040021 54 198 0.0 0.0 0.00 0.26 0.26 92 1008.2
20260903034517 54 198 0.0 0.0 0.00 0.26 0.26 91 1008.0
20260903033015 55 198 0.0 0.0 0.00 0.26 0.26 90 1007.7
20260903031512 56 198 0.0 0.0 0.00 0.26 0.26 89 1007.7
20260903030019 56 198 0.0 0.0 0.00 0.26 0.26 88 1007.5
20260903024515 58 198 0.0 0.0 0.00 0.26 0.26 87 1007.3
20260903023012 59 198 0.0 0.0 0.00 0.26 0.26 84 1007.3
20260903021510 60 198 0.0 0.0 0.00 0.26 0.26 79 1007.1
20260903020009 62 198 0.0 3.0 0.00 0.26 0.26 80 1006.9
20260903014508 62 198 0.0 0.0 0.00 0.26 0.26 79 1007.0
20260903013007 62 198 0.0 0.0 0.00 0.26 0.26 80 1006.8
20260903011509 63 198 0.0 0.0 0.00 0.26 0.26 79 1006.6
20260903010007 63 198 0.0 3.0 0.00 0.26 0.26 77 1006.6
20260903004508 64 197 0.0 4.0 0.00 0.26 0.26 75 1006.4
20260903003005 64 176 0.0 0.0 0.00 0.26 0.26 81 1006.4
20260903001504 65 177 0.0 5.0 0.00 0.26 0.26 78 1006.3
20260903000003 64 174 0.0 6.0 0.00 0.26 0.26 78 1006.4
20260902234601 64 257 0.0 5.0 0.00 0.26 0.26 78 1006.3
20260902233056 62 192 0.0 3.0 0.00 0.26 0.26 85 1006.1
20260902231554 61 192 0.0 6.0 0.00 0.26 0.26 85 1006.2
20260902230051 61 192 0.0 3.0 0.02 0.26 0.26 93 1006.1
20260902224549 59 192 1.0 4.0 0.02 0.26 0.26 94 1005.8
20260902223052 59 174 0.0 5.0 0.03 0.26 0.26 96 1005.7
20260902221556 59 205 0.0 6.0 0.03 0.26 0.26 96 1005.7
20260902220054 59 164 0.0 5.0 0.02 0.24 0.24 97 1005.4
20260902214547 58 200 1.0 11.0 0.02 0.24 0.24 97 1005.3
20260902213046 58 196 0.0 4.0 0.01 0.23 0.23 97 1005.3
20260902211557 57 192 0.0 7.0 0.02 0.23 0.23 97 1005.2
20260902210053 57 210 0.0 8.0 0.02 0.22 0.22 96 1005.1
20260902204547 57 217 0.0 8.0 0.03 0.22 0.22 96 1005.0
20260902203047 57 192 0.0 4.0 0.04 0.22 0.22 96 1005.0
20260902201558 57 188 0.0 9.0 0.03 0.21 0.21 96 1004.9
20260902200046 57 198 0.0 6.0 0.03 0.20 0.20 95 1004.9
20260902194542 57 194 0.0 4.0 0.06 0.19 0.19 95 1004.9
20260902193042 57 194 1.0 7.0 0.06 0.18 0.18 95 1004.9
20260902191541 57 113 0.0 4.0 0.07 0.18 0.18 95 1005.2
20260902190038 57 200 0.0 1.0 0.06 0.17 0.17 95 1005.5
20260902184537 57 200 0.0 3.0 0.04 0.13 0.13 94 1005.7
20260902183046 57 200 0.0 3.0 0.03 0.12 0.12 94 1005.7
20260902181535 57 200 0.0 5.0 0.03 0.11 0.11 93 1005.8
20260902180033 57 186 0.0 4.0 0.05 0.10 0.10 93 1005.9
20260902174531 57 187 0.0 4.0 0.06 0.09 0.09 93 1006.1
20260902173031 57 193 0.0 4.0 0.08 0.09 0.09 92 1006.1
20260902171530 58 184 0.0 1.0 0.07 0.07 0.07 93 1006.1
20260902170029 58 184 0.0 2.0 0.05 0.05 0.05 92 1006.1
20260902164527 58 184 0.0 0.0 0.03 0.03 0.03 90 1006.1
20260902163028 58 184 0.0 0.0 0.01 0.01 0.01 88 1006.1
20260902161527 58 184 0.0 0.0 0.00 0.00 0.00 88 1006.1
20260902160026 58 184 0.0 0.0 0.00 0.00 0.00 87 1006.1
20260902154532 58 184 0.0 0.0 0.00 0.00 0.00 86 1006.2
20260902153024 58 184 0.0 0.0 0.00 0.00 0.00 88 1006.3
20260902151522 58 184 0.0 0.0 0.00 0.00 0.00 89 1006.5
20260902150023 58 184 0.0 0.0 0.00 0.00 0.00 87 1006.7
20260902144520 57 184 0.0 0.0 0.00 0.00 0.00 88 1006.8
20260902143021 57 184 0.0 0.0 0.00 0.00 0.00 88 1006.8
20260902141524 57 184 0.0 0.0 0.00 0.00 0.00 88 1006.9
20260902140031 57 184 0.0 0.0 0.00 0.00 0.00 88 1007.0
20260902134515 57 184 0.0 0.0 0.00 0.00 0.00 88 1007.2
20260902133014 57 184 0.0 0.0 0.00 0.00 0.00 88 1007.3
20260902131511 57 184 0.0 0.0 0.00 0.00 0.00 88 1007.6
20260902130010 57 184 0.0 0.0 0.00 0.00 0.00 88 1007.9
20260902124515 57 184 0.0 0.0 0.00 0.00 0.00 88 1008.1